Flag for Italy Weather past 2 weeks in Naples, Italy

Now
48 °F

Rain. Partly cloudy.


Feels Like: 47 °F
Forecast: 46 / 54 °F
Wind: 3 mph from Northwest

Location: Naples / Capodichino

Current Time: Jan 31, 2015 at 6:14:39 PM

Latest Report: Jan 31, 2015 at 5:20 PM


Visibility: 2 mi

Pressure: 29.12 "Hg

Humidity: 94%

Dew point: 46 °F

Location of NaplesLocation

Historic Weather in Naples — Graph

°F

Naples temperature yesterday

Maximum temperature yesterday: 57 °F (at 12:20 PM)
Minimum temperature yesterday: 45 °F (at 8:20 PM)
Average temperature yesterday: 52 °F

Past Weeks' High & Low Weather Summary

 TemperatureHumidityPressure
High64 °F (Jan 17, 12:20 PM)100% (Jan 18, 9:50 AM)30.12 "Hg (Jan 18, 9:50 AM)
Low34 °F (Jan 29, 4:20 AM)41% (Jan 27, 11:50 AM)29.03 "Hg (Jan 30, 3:20 PM)
Average50 °F76%29.77 "Hg
* Reported Jan 16 4:20 PM — Jan 31 4:50 PM, Naples, Weather by CustomWeather, © 2014

Note: Actual official high and low records may vary slightly from our data, if they occured in-between our weather recording intervals... More about our weather records

Advertising

Naples weather history for previous 24 hours

 ConditionsComfort  
Time TempWeatherWind HumidityBarometerVisibility
4:50 PM
Jan 31
48 °FRain. Broken clouds.5 mph94%29.12 "Hg2 mi
3:50 PM48 °FRain. Partly sunny.3 mph94%29.15 "Hg3 mi
3:20 PM48 °FLight rain. Partly sunny.5 mph87%29.12 "Hg3 mi
2:50 PM50 °FLight rain. Partly sunny.5 mph82%29.12 "Hg3 mi
2:20 PM52 °FRain. Partly sunny.6 mph77%29.12 "Hg4 mi
1:50 PM52 °FPartly sunny.6 mph72%29.12 "HgN/A
1:20 PM52 °FPartly sunny.5 mph67%29.15 "HgN/A
12:50 PM52 °FPartly sunny.5 mph67%29.15 "HgN/A
12:20 PM50 °FPartly sunny.7 mph71%29.18 "HgN/A
11:50 AM48 °FPartly sunny.6 mph82%29.18 "HgN/A
11:20 AM48 °FDrizzle. Partly sunny.8 mph87%29.21 "HgN/A
10:50 AM48 °FPartly sunny.9 mph87%29.21 "HgN/A
10:20 AM46 °FPartly sunny.6 mph87%29.24 "HgN/A
9:50 AM46 °FScattered showers. Partly sunny.5 mph87%29.24 "HgN/A
9:20 AM46 °FPartly sunny.5 mph82%29.21 "HgN/A
8:50 AM46 °FPartly sunny.5 mph82%29.21 "HgN/A
8:20 AM46 °FLight rain. Partly sunny.3 mph82%29.21 "Hg5 mi
7:50 AM46 °FRain. Partly sunny.5 mph76%29.21 "HgN/A
7:20 AM48 °FPartly sunny.6 mph71%29.21 "HgN/A
6:50 AM50 °FPassing clouds.12 mph67%29.21 "HgN/A
6:20 AM50 °FPassing clouds.9 mph62%29.18 "HgN/A
5:50 AM52 °FPassing clouds.10 mph58%29.21 "HgN/A
5:20 AM52 °FPassing clouds.15 mph58%29.21 "HgN/A
4:50 AM52 °FPassing clouds.8 mph58%29.21 "HgN/A
3:50 AM50 °FPassing clouds.16 mph58%29.18 "HgN/A
3:20 AM50 °FPassing clouds.15 mph54%29.21 "HgN/A
2:50 AM48 °FPassing clouds.14 mph62%29.21 "HgN/A
2:20 AM52 °FLight rain. Passing clouds.14 mph54%29.21 "HgN/A
1:50 AM50 °FLight rain. Passing clouds.17 mph62%29.21 "HgN/A
1:20 AM50 °FLight rain. Passing clouds.16 mph62%29.21 "HgN/A
12:50 AM50 °FLight rain. Passing clouds.17 mph58%29.24 "HgN/A
12:20 AM50 °FPassing clouds.12 mph58%29.21 "HgN/A
11:50 PM
Jan 30
48 °FPassing clouds.12 mph62%29.21 "HgN/A
11:20 PM50 °FPassing clouds.13 mph58%29.21 "HgN/A
10:50 PM46 °FPassing clouds.3 mph62%29.21 "HgN/A
10:20 PM46 °FPassing clouds.2 mph62%29.21 "HgN/A
9:50 PM50 °FPassing clouds.20 mph58%29.18 "HgN/A
9:20 PM50 °FThunderstorms. Passing clouds.17 mph62%29.18 "Hg5 mi
8:50 PM46 °FThunderstorms. Passing clouds.5 mph76%29.18 "Hg5 mi
8:20 PM45 °FHeavy rain. Passing clouds.22 mph71%29.15 "Hg5 mi
7:50 PM48 °FPassing clouds.21 mph66%29.15 "HgN/A
7:20 PM46 °FPassing clouds.18 mph71%29.15 "HgN/A
6:50 PM48 °FPassing clouds.18 mph62%29.15 "HgN/A
6:20 PM50 °FPassing clouds.23 mph62%29.12 "HgN/A
Weather by CustomWeather, © 2014

See weather overviewHow to use our weather pages